sat.trackr.live / text

‹ back to catalog

STARLINK-2667

NORAD 48663 · 2021-044AB

PAYLOAD ACTIVE UNKNOWN

§ Identity

Operator
Country
US
Launch date
2021-05-26
Launch site
AFETR
Launch vehicle
Mass (kg)
RCS (m²)

Purposes: comms

External: N2YO · Heavens-Above · Gunter

§ Orbital elements

Epoch: 2026-05-25T03:57:23.502240Z

Period
94.01 min
Inclination
53.1602°
Eccentricity
0.0001159
Mean motion
15.31705182 rev/d
Perigee alt
469.9 km
Apogee alt
471.5 km
Semi-major
6,848.9 km
B*
3.1230e-5
RAAN
108.2099°
Arg perigee
77.6795°
Mean anomaly
282.4337°
Rev number
27,568

§ Raw data

STARLINK-26671 48663U 21044AB  26145.16485535  .00000604  00000+0  31230-4 0  99952 48663  53.1602 108.2099 0001159  77.6795 282.4337 15.31705182275682

JSON: /api/v1/satellites/48663 · /tle

For live sub-satellite position, see the globe view (requires WebGL).

§ Visibility from observer

Set your observer location to see the next 7 days of passes ≥ 10°. The values pass through the URL so the page stays shareable.

No JS? Fill the form by hand. The geolocation button needs JavaScript.